Time,TemperatureF,DewpointF,PressureIn,WindDirection,WindDirectionDegrees,WindSpeedMPH,WindSpeedGustMPH,Humidity,HourlyPrecipIn,Conditions,Clouds,dailyrainin,SoftwareType,DateUTC
2013-10-06 00:00:00,65.8,64.9,30.02,WNW,286,0.0,0.0,97,0.00,,,0.00,Wunderground v.1.15,2013-10-06 04:00:00,
2013-10-06 00:05:00,65.8,65.2,30.02,WNW,286,0.0,0.0,98,0.00,,,0.00,Wunderground v.1.15,2013-10-06 04:05:00,
2013-10-06 00:10:00,65.7,64.8,30.02,WNW,286,0.0,0.0,97,0.00,,,0.00,Wunderground v.1.15,2013-10-06 04:10:00,
2013-10-06 00:15:00,65.7,65.1,30.02,WNW,286,0.0,0.0,98,0.00,,,0.00,Wunderground v.1.15,2013-10-06 04:15:00,
2013-10-06 00:20:00,65.7,65.1,30.02,WNW,286,0.0,0.0,98,0.00,,,0.00,Wunderground v.1.15,2013-10-06 04:20:00,
2013-10-06 00:30:00,65.5,64.6,30.02,WNW,286,0.0,0.0,97,0.00,,,0.00,Wunderground v.1.15,2013-10-06 04:30:00,
2013-10-06 00:35:00,65.4,64.5,30.02,WNW,286,0.0,0.0,97,0.00,,,0.00,Wunderground v.1.15,2013-10-06 04:35:00,
2013-10-06 00:40:00,65.3,64.7,30.02,WNW,286,0.0,0.0,98,0.00,,,0.00,Wunderground v.1.15,2013-10-06 04:40:00,
2013-10-06 00:45:00,65.2,64.6,30.02,WNW,286,0.0,0.0,98,0.00,,,0.00,Wunderground v.1.15,2013-10-06 04:45:00,
2013-10-06 00:50:00,65.1,64.2,30.02,WNW,286,0.0,0.0,97,0.00,,,0.00,Wunderground v.1.15,2013-10-06 04:50:00,
2013-10-06 00:55:00,65.0,64.1,30.02,WNW,286,0.0,0.0,97,0.00,,,0.00,Wunderground v.1.15,2013-10-06 04:55:00,
2013-10-06 01:00:00,65.0,64.4,30.02,WNW,286,0.0,0.0,98,0.00,,,0.00,Wunderground v.1.15,2013-10-06 05:00:00,
2013-10-06 01:10:00,64.9,64.3,30.02,WNW,286,0.0,0.0,98,0.00,,,0.00,Wunderground v.1.15,2013-10-06 05:10:00,
2013-10-06 01:15:00,64.8,64.2,30.02,WNW,286,0.0,0.0,98,0.00,,,0.00,Wunderground v.1.15,2013-10-06 05:15:00,
2013-10-06 01:20:00,64.7,64.1,30.02,WNW,286,0.0,0.0,98,0.00,,,0.00,Wunderground v.1.15,2013-10-06 05:20:00,
2013-10-06 01:25:00,64.6,64.0,30.02,WNW,286,0.0,0.0,98,0.00,,,0.00,Wunderground v.1.15,2013-10-06 05:25:00,
2013-10-06 01:35:00,64.4,63.5,30.02,WNW,286,0.0,0.0,97,0.00,,,0.00,Wunderground v.1.15,2013-10-06 05:35:00,
2013-10-06 01:40:00,64.3,63.7,30.02,WNW,286,0.0,0.0,98,0.00,,,0.00,Wunderground v.1.15,2013-10-06 05:40:00,
2013-10-06 01:50:00,64.1,63.5,30.02,WNW,286,0.0,0.0,98,0.00,,,0.00,Wunderground v.1.15,2013-10-06 05:50:00,
2013-10-06 01:55:00,64.1,63.5,30.02,WNW,286,0.0,0.0,98,0.00,,,0.00,Wunderground v.1.15,2013-10-06 05:55:00,
2013-10-06 02:00:00,64.0,63.4,30.01,WNW,286,0.0,0.0,98,0.00,,,0.00,Wunderground v.1.15,2013-10-06 06:00:00,
2013-10-06 02:05:00,64.0,63.4,30.01,WNW,286,0.0,0.0,98,0.00,,,0.00,Wunderground v.1.15,2013-10-06 06:05:00,
2013-10-06 02:15:00,63.9,63.3,30.01,WNW,286,0.0,0.0,98,0.00,,,0.00,Wunderground v.1.15,2013-10-06 06:15:00,
2013-10-06 02:20:00,63.8,63.2,30.01,WNW,286,0.0,0.0,98,0.00,,,0.00,Wunderground v.1.15,2013-10-06 06:20:00,
2013-10-06 02:30:00,63.7,63.1,30.01,WNW,286,0.0,0.0,98,0.00,,,0.00,Wunderground v.1.15,2013-10-06 06:30:00,
2013-10-06 02:35:00,63.7,63.1,30.01,WNW,286,0.0,0.0,98,0.00,,,0.00,Wunderground v.1.15,2013-10-06 06:35:00,
2013-10-06 02:40:00,63.5,62.9,30.01,WNW,286,0.0,0.0,98,0.00,,,0.00,Wunderground v.1.15,2013-10-06 06:40:00,
2013-10-06 02:45:00,63.5,62.9,30.00,WNW,286,0.0,0.0,98,0.00,,,0.00,Wunderground v.1.15,2013-10-06 06:45:00,
2013-10-06 02:55:00,63.4,62.8,30.00,WNW,286,0.0,0.0,98,0.00,,,0.00,Wunderground v.1.15,2013-10-06 06:55:00,
2013-10-06 03:00:00,63.3,62.7,30.00,WNW,286,0.0,0.0,98,0.00,,,0.00,Wunderground v.1.15,2013-10-06 07:00:00,
2013-10-06 03:05:00,63.2,62.6,30.00,WNW,286,0.0,0.0,98,0.00,,,0.00,Wunderground v.1.15,2013-10-06 07:05:00,
2013-10-06 03:15:00,63.0,62.4,30.00,WNW,286,0.0,0.0,98,0.00,,,0.00,Wunderground v.1.15,2013-10-06 07:15:00,
2013-10-06 03:20:00,63.0,62.4,30.00,WNW,286,0.0,0.0,98,0.00,,,0.00,Wunderground v.1.15,2013-10-06 07:20:00,
2013-10-06 03:30:00,62.7,62.1,29.99,WNW,286,0.0,0.0,98,0.00,,,0.00,Wunderground v.1.15,2013-10-06 07:30:00,
2013-10-06 03:35:00,62.6,62.0,30.00,WNW,286,0.0,0.0,98,0.00,,,0.00,Wunderground v.1.15,2013-10-06 07:35:00,
2013-10-06 03:40:00,62.6,62.0,30.00,WNW,286,0.0,0.0,98,0.00,,,0.00,Wunderground v.1.15,2013-10-06 07:40:00,
2013-10-06 03:45:00,62.5,61.9,29.99,WNW,286,0.0,0.0,98,0.00,,,0.00,Wunderground v.1.15,2013-10-06 07:45:00,
2013-10-06 03:55:00,62.4,61.8,30.00,WNW,286,0.0,0.0,98,0.00,,,0.00,Wunderground v.1.15,2013-10-06 07:55:00,
2013-10-06 04:00:00,62.4,61.8,30.00,WNW,286,0.0,0.0,98,0.00,,,0.00,Wunderground v.1.15,2013-10-06 08:00:00,
2013-10-06 04:10:00,62.3,61.7,30.00,WNW,286,0.0,0.0,98,0.00,,,0.00,Wunderground v.1.15,2013-10-06 08:10:00,
2013-10-06 04:15:00,62.3,61.7,30.00,WNW,286,0.0,0.0,98,0.00,,,0.00,Wunderground v.1.15,2013-10-06 08:15:00,
2013-10-06 04:20:00,62.3,62.0,30.00,WNW,286,0.0,0.0,99,0.00,,,0.00,Wunderground v.1.15,2013-10-06 08:20:00,
2013-10-06 04:25:00,62.3,62.0,30.00,WNW,286,0.0,0.0,99,0.00,,,0.00,Wunderground v.1.15,2013-10-06 08:25:00,
2013-10-06 04:35:00,62.1,61.5,30.00,WNW,286,0.0,0.0,98,0.00,,,0.00,Wunderground v.1.15,2013-10-06 08:35:00,
2013-10-06 04:40:00,62.0,61.4,30.00,WNW,286,0.0,0.0,98,0.00,,,0.00,Wunderground v.1.15,2013-10-06 08:40:00,
2013-10-06 04:50:00,61.8,61.2,30.00,WNW,286,0.0,0.0,98,0.00,,,0.00,Wunderground v.1.15,2013-10-06 08:50:00,
2013-10-06 04:55:00,61.7,61.1,30.00,WNW,286,0.0,0.0,98,0.00,,,0.00,Wunderground v.1.15,2013-10-06 08:55:00,
2013-10-06 05:00:00,61.7,61.1,30.00,WNW,286,0.0,0.0,98,0.00,,,0.00,Wunderground v.1.15,2013-10-06 09:00:00,
2013-10-06 05:10:00,61.6,61.3,30.01,WNW,286,0.0,0.0,99,0.00,,,0.00,Wunderground v.1.15,2013-10-06 09:10:00,
2013-10-06 05:15:00,61.5,60.9,30.00,WNW,286,0.0,0.0,98,0.00,,,0.00,Wunderground v.1.15,2013-10-06 09:15:00,
2013-10-06 05:20:00,61.4,60.8,30.00,WNW,286,0.0,0.0,98,0.00,,,0.00,Wunderground v.1.15,2013-10-06 09:20:00,
2013-10-06 05:30:00,61.3,60.7,30.00,WNW,286,0.0,0.0,98,0.00,,,0.00,Wunderground v.1.15,2013-10-06 09:30:00,
2013-10-06 05:35:00,61.3,61.0,30.00,WNW,286,0.0,0.0,99,0.00,,,0.00,Wunderground v.1.15,2013-10-06 09:35:00,
2013-10-06 05:40:00,61.2,60.9,30.00,WNW,286,0.0,0.0,99,0.00,,,0.00,Wunderground v.1.15,2013-10-06 09:40:00,
2013-10-06 05:50:00,61.1,60.8,30.00,WNW,286,0.0,0.0,99,0.00,,,0.00,Wunderground v.1.15,2013-10-06 09:50:00,
2013-10-06 05:55:00,61.0,60.7,30.00,WNW,286,0.0,0.0,99,0.00,,,0.00,Wunderground v.1.15,2013-10-06 09:55:00,
2013-10-06 06:00:00,60.9,60.3,30.01,WNW,286,0.0,0.0,98,0.00,,,0.00,Wunderground v.1.15,2013-10-06 10:00:00,
2013-10-06 06:10:00,60.7,60.1,30.01,WNW,286,0.0,0.0,98,0.00,,,0.00,Wunderground v.1.15,2013-10-06 10:10:00,
2013-10-06 06:15:00,60.6,60.0,30.01,WNW,286,0.0,0.0,98,0.00,,,0.00,Wunderground v.1.15,2013-10-06 10:15:00,
2013-10-06 06:20:00,60.5,59.9,30.01,WNW,286,0.0,0.0,98,0.00,,,0.00,Wunderground v.1.15,2013-10-06 10:20:00,
2013-10-06 06:30:00,60.4,60.1,30.01,WNW,286,0.0,0.0,99,0.00,,,0.00,Wunderground v.1.15,2013-10-06 10:30:00,
2013-10-06 06:35:00,60.4,60.1,30.01,WNW,286,0.0,0.0,99,0.00,,,0.00,Wunderground v.1.15,2013-10-06 10:35:00,
2013-10-06 06:40:00,60.4,60.1,30.01,WNW,286,0.0,0.0,99,0.00,,,0.00,Wunderground v.1.15,2013-10-06 10:40:00,
2013-10-06 06:50:00,60.2,59.9,30.01,WNW,286,0.0,0.0,99,0.00,,,0.00,Wunderground v.1.15,2013-10-06 10:50:00,
2013-10-06 06:55:00,60.1,59.8,30.01,WNW,286,0.0,0.0,99,0.00,,,0.00,Wunderground v.1.15,2013-10-06 10:55:00,
2013-10-06 07:00:00,60.1,59.8,30.01,WNW,286,0.0,0.0,99,0.00,,,0.00,Wunderground v.1.15,2013-10-06 11:00:00,
2013-10-06 07:10:00,59.9,59.6,30.01,WNW,286,0.0,0.0,99,0.00,,,0.00,Wunderground v.1.15,2013-10-06 11:10:00,
2013-10-06 07:15:00,59.8,59.5,30.01,WNW,286,0.0,0.0,99,0.00,,,0.00,Wunderground v.1.15,2013-10-06 11:15:00,
2013-10-06 07:25:00,59.7,59.4,30.01,WNW,286,0.0,0.0,99,0.00,,,0.00,Wunderground v.1.15,2013-10-06 11:25:00,
2013-10-06 07:30:00,59.7,59.4,30.01,WNW,286,0.0,0.0,99,0.00,,,0.00,Wunderground v.1.15,2013-10-06 11:30:00,
2013-10-06 07:35:00,59.7,59.4,30.01,WNW,286,0.0,0.0,99,0.00,,,0.00,Wunderground v.1.15,2013-10-06 11:35:00,
2013-10-06 07:45:00,59.7,59.4,30.01,WNW,286,0.0,0.0,99,0.00,,,0.00,Wunderground v.1.15,2013-10-06 11:45:00,
2013-10-06 07:50:00,59.8,59.5,30.02,WNW,286,0.0,0.0,99,0.00,,,0.00,Wunderground v.1.15,2013-10-06 11:50:00,
2013-10-06 07:55:00,59.9,59.6,30.02,WNW,286,0.0,0.0,99,0.00,,,0.00,Wunderground v.1.15,2013-10-06 11:55:00,
2013-10-06 08:05:00,60.0,59.7,30.02,WNW,286,0.0,0.0,99,0.00,,,0.00,Wunderground v.1.15,2013-10-06 12:05:00,
2013-10-06 08:10:00,60.0,59.7,30.02,WNW,286,0.0,0.0,99,0.00,,,0.00,Wunderground v.1.15,2013-10-06 12:10:00,
2013-10-06 08:15:00,60.1,59.8,30.02,WNW,286,0.0,0.0,99,0.00,,,0.00,Wunderground v.1.15,2013-10-06 12:15:00,
2013-10-06 08:20:00,60.3,60.0,30.02,WNW,286,0.0,0.0,99,0.00,,,0.00,Wunderground v.1.15,2013-10-06 12:20:00,
2013-10-06 08:30:00,60.7,60.7,30.02,WNW,286,0.0,0.0,100,0.00,,,0.00,Wunderground v.1.15,2013-10-06 12:30:00,
2013-10-06 08:35:00,60.9,60.9,30.02,WNW,286,0.0,0.0,100,0.00,,,0.00,Wunderground v.1.15,2013-10-06 12:35:00,
2013-10-06 08:40:00,61.2,61.2,30.02,WNW,286,0.0,0.0,100,0.00,,,0.00,Wunderground v.1.15,2013-10-06 12:40:00,
2013-10-06 08:50:00,62.1,62.1,30.03,WNW,286,0.0,0.0,100,0.00,,,0.00,Wunderground v.1.15,2013-10-06 12:50:00,
2013-10-06 08:55:00,62.8,62.8,30.03,WNW,286,0.0,0.0,100,0.00,,,0.00,Wunderground v.1.15,2013-10-06 12:55:00,
2013-10-06 09:05:00,63.6,63.6,30.03,WNW,286,0.0,0.0,100,0.00,,,0.00,Wunderground v.1.15,2013-10-06 13:05:00,
2013-10-06 09:10:00,64.1,64.1,30.03,WNW,286,0.0,0.0,100,0.00,,,0.00,Wunderground v.1.15,2013-10-06 13:10:00,
2013-10-06 09:15:00,64.4,64.4,30.03,WNW,286,0.0,0.0,100,0.00,,,0.00,Wunderground v.1.15,2013-10-06 13:15:00,
2013-10-06 09:20:00,64.7,64.7,30.03,WNW,286,0.0,0.0,100,0.00,,,0.00,Wunderground v.1.15,2013-10-06 13:20:00,
2013-10-06 09:30:00,65.4,65.4,30.03,WNW,286,0.0,0.0,100,0.00,,,0.00,Wunderground v.1.15,2013-10-06 13:30:00,
2013-10-06 09:35:00,65.6,65.6,30.03,WNW,286,0.0,0.0,100,0.00,,,0.00,Wunderground v.1.15,2013-10-06 13:35:00,
2013-10-06 09:45:00,66.3,66.3,30.03,WNW,286,0.0,0.0,100,0.00,,,0.00,Wunderground v.1.15,2013-10-06 13:45:00,
2013-10-06 09:50:00,66.9,66.9,30.03,WNW,286,0.0,0.0,100,0.00,,,0.00,Wunderground v.1.15,2013-10-06 13:50:00,
2013-10-06 09:55:00,67.4,67.4,30.03,WNW,286,0.0,0.0,100,0.00,,,0.00,Wunderground v.1.15,2013-10-06 13:55:00,
2013-10-06 10:00:00,67.5,67.5,30.03,WNW,286,0.0,0.0,100,0.00,,,0.00,Wunderground v.1.15,2013-10-06 14:00:00,
2013-10-06 10:10:00,68.2,68.2,30.04,WNW,286,0.0,0.0,100,0.00,,,0.00,Wunderground v.1.15,2013-10-06 14:10:00,
2013-10-06 10:15:00,68.5,68.5,30.04,WNW,286,0.0,0.0,100,0.00,,,0.00,Wunderground v.1.15,2013-10-06 14:15:00,
2013-10-06 10:25:00,68.9,68.9,30.03,WNW,286,0.0,0.0,100,0.00,,,0.00,Wunderground v.1.15,2013-10-06 14:25:00,
2013-10-06 10:30:00,69.2,69.2,30.03,WNW,286,0.0,0.0,100,0.00,,,0.00,Wunderground v.1.15,2013-10-06 14:30:00,
2013-10-06 10:35:00,69.5,69.5,30.03,WNW,290,0.0,0.0,100,0.00,,,0.00,Wunderground v.1.15,2013-10-06 14:35:00,
2013-10-06 10:45:00,70.3,70.0,30.03,NNW,344,0.0,0.0,99,0.00,,,0.00,Wunderground v.1.15,2013-10-06 14:45:00,
2013-10-06 10:50:00,70.8,70.5,30.03,West,278,0.0,1.0,99,0.00,,,0.00,Wunderground v.1.15,2013-10-06 14:50:00,
2013-10-06 10:55:00,71.3,70.7,30.03,West,279,0.0,1.0,98,0.00,,,0.00,Wunderground v.1.15,2013-10-06 14:55:00,
2013-10-06 11:05:00,72.1,71.2,30.02,West,279,0.0,1.0,97,0.00,,,0.00,Wunderground v.1.15,2013-10-06 15:05:00,
2013-10-06 11:10:00,72.5,71.6,30.02,SW,227,0.0,1.0,97,0.00,,,0.00,Wunderground v.1.15,2013-10-06 15:10:00,
2013-10-06 11:15:00,72.8,71.3,30.02,SW,227,0.0,1.0,95,0.00,,,0.00,Wunderground v.1.15,2013-10-06 15:15:00,
2013-10-06 11:25:00,73.1,71.6,30.02,SW,227,0.0,1.0,95,0.00,,,0.00,Wunderground v.1.15,2013-10-06 15:25:00,
2013-10-06 11:30:00,73.3,71.5,30.02,South,178,0.0,0.0,94,0.00,,,0.00,Wunderground v.1.15,2013-10-06 15:30:00,
2013-10-06 11:35:00,73.4,71.6,30.02,NNE,32,0.0,0.0,94,0.00,,,0.00,Wunderground v.1.15,2013-10-06 15:35:00,
2013-10-06 11:45:00,74.7,71.6,30.01,NE,56,1.0,2.0,90,0.00,,,0.00,Wunderground v.1.15,2013-10-06 15:45:00,
2013-10-06 11:50:00,75.6,71.8,30.01,East,80,1.0,1.0,88,0.00,,,0.00,Wunderground v.1.15,2013-10-06 15:50:00,
2013-10-06 11:55:00,76.5,72.0,30.01,ENE,67,1.0,1.0,86,0.00,,,0.00,Wunderground v.1.15,2013-10-06 15:55:00,
2013-10-06 12:05:00,77.1,71.9,30.01,NW,311,1.0,1.0,84,0.00,,,0.00,Wunderground v.1.15,2013-10-06 16:05:00,
2013-10-06 12:10:00,77.2,72.3,30.01,NW,311,0.0,0.0,85,0.00,,,0.00,Wunderground v.1.15,2013-10-06 16:10:00,
2013-10-06 12:15:00,77.0,72.1,30.01,East,97,0.0,1.0,85,0.00,,,0.00,Wunderground v.1.15,2013-10-06 16:15:00,
2013-10-06 12:25:00,76.0,72.5,30.01,NE,55,0.0,1.0,89,0.00,,,0.01,Wunderground v.1.15,2013-10-06 16:25:00,
2013-10-06 12:30:00,75.5,72.7,30.00,NE,55,0.0,0.0,91,0.12,,,0.02,Wunderground v.1.15,2013-10-06 16:30:00,
2013-10-06 12:35:00,75.5,73.7,30.00,NE,55,0.0,0.0,94,0.06,,,0.02,Wunderground v.1.15,2013-10-06 16:35:00,
2013-10-06 12:45:00,75.6,73.8,29.99,ENE,58,0.0,0.0,94,0.00,,,0.02,Wunderground v.1.15,2013-10-06 16:45:00,
2013-10-06 12:50:00,76.0,74.5,29.99,ENE,58,0.0,0.0,95,0.00,,,0.02,Wunderground v.1.15,2013-10-06 16:50:00,
2013-10-06 13:00:00,76.5,74.6,29.99,ENE,58,0.0,0.0,94,0.00,,,0.02,Wunderground v.1.15,2013-10-06 17:00:00,
2013-10-06 13:05:00,76.8,74.6,29.99,ENE,58,0.0,1.0,93,0.00,,,0.02,Wunderground v.1.15,2013-10-06 17:05:00,
2013-10-06 13:10:00,76.5,73.7,29.99,ENE,58,1.0,1.0,91,0.00,,,0.02,Wunderground v.1.15,2013-10-06 17:10:00,
2013-10-06 13:20:00,76.3,73.8,29.98,ENE,58,0.0,0.0,92,0.00,,,0.02,Wunderground v.1.15,2013-10-06 17:20:00,
2013-10-06 13:25:00,76.4,74.5,29.98,ENE,58,1.0,1.0,94,0.00,,,0.02,Wunderground v.1.15,2013-10-06 17:25:00,
2013-10-06 13:35:00,76.9,74.1,29.97,ENE,57,1.0,1.0,91,0.00,,,0.02,Wunderground v.1.15,2013-10-06 17:35:00,
2013-10-06 13:40:00,77.2,74.7,29.97,ENE,57,1.0,1.0,92,0.00,,,0.02,Wunderground v.1.15,2013-10-06 17:40:00,
2013-10-06 13:45:00,77.4,74.2,29.97,ENE,57,1.0,1.0,90,0.00,,,0.02,Wunderground v.1.15,2013-10-06 17:45:00,
2013-10-06 13:55:00,77.9,74.1,29.96,ENE,57,0.0,1.0,88,0.00,,,0.02,Wunderground v.1.15,2013-10-06 17:55:00,
2013-10-06 14:00:00,78.0,74.2,29.96,ENE,57,1.0,1.0,88,0.00,,,0.02,Wunderground v.1.15,2013-10-06 18:00:00,
2013-10-06 14:05:00,78.0,73.8,29.96,ENE,57,1.0,1.0,87,0.00,,,0.02,Wunderground v.1.15,2013-10-06 18:05:00,
2013-10-06 14:15:00,78.8,73.9,29.95,West,275,0.0,1.0,85,0.00,,,0.02,Wunderground v.1.15,2013-10-06 18:15:00,
2013-10-06 14:20:00,78.7,74.2,29.95,West,275,0.0,0.0,86,0.00,,,0.02,Wunderground v.1.15,2013-10-06 18:20:00,
2013-10-06 14:25:00,78.5,75.0,29.95,West,275,0.0,0.0,89,0.00,,,0.02,Wunderground v.1.15,2013-10-06 18:25:00,
2013-10-06 14:30:00,78.9,74.4,29.95,NNE,15,0.0,0.0,86,0.00,,,0.02,Wunderground v.1.15,2013-10-06 18:30:00,
2013-10-06 14:40:00,80.2,74.9,29.94,WNW,283,1.0,2.0,84,0.00,,,0.02,Wunderground v.1.15,2013-10-06 18:40:00,
2013-10-06 14:45:00,80.0,72.9,29.94,WNW,283,1.0,2.0,79,0.00,,,0.02,Wunderground v.1.15,2013-10-06 18:45:00,
2013-10-06 14:55:00,80.7,73.2,29.94,ESE,117,0.0,1.0,78,0.00,,,0.02,Wunderground v.1.15,2013-10-06 18:55:00,
2013-10-06 15:00:00,80.8,73.3,29.93,NE,54,1.0,1.0,78,0.00,,,0.02,Wunderground v.1.15,2013-10-06 19:00:00,
2013-10-06 15:05:00,80.9,74.5,29.93,ENE,57,1.0,1.0,81,0.00,,,0.02,Wunderground v.1.15,2013-10-06 19:05:00,
2013-10-06 15:15:00,81.1,74.0,29.93,ENE,76,1.0,2.0,79,0.00,,,0.02,Wunderground v.1.15,2013-10-06 19:15:00,
2013-10-06 15:20:00,81.3,73.4,29.93,ENE,76,1.0,1.0,77,0.00,,,0.02,Wunderground v.1.15,2013-10-06 19:20:00,
2013-10-06 15:25:00,81.5,72.8,29.92,SSE,157,1.0,1.0,75,0.00,,,0.02,Wunderground v.1.15,2013-10-06 19:25:00,
2013-10-06 15:30:00,81.2,72.9,29.92,East,98,1.0,1.0,76,0.00,,,0.02,Wunderground v.1.15,2013-10-06 19:30:00,
2013-10-06 15:40:00,80.3,72.8,29.92,East,98,1.0,1.0,78,0.00,,,0.02,Wunderground v.1.15,2013-10-06 19:40:00,
2013-10-06 15:45:00,80.0,72.9,29.92,East,98,1.0,1.0,79,0.00,,,0.02,Wunderground v.1.15,2013-10-06 19:45:00,
2013-10-06 15:55:00,79.9,73.2,29.91,East,98,0.0,1.0,80,0.00,,,0.02,Wunderground v.1.15,2013-10-06 19:55:00,
2013-10-06 16:00:00,79.8,72.3,29.91,ENE,65,0.0,1.0,78,0.00,,,0.02,Wunderground v.1.15,2013-10-06 20:00:00,
2013-10-06 16:10:00,79.7,72.6,29.91,ENE,71,1.0,1.0,79,0.00,,,0.02,Wunderground v.1.15,2013-10-06 20:10:00,
2013-10-06 16:15:00,79.5,72.0,29.91,ENE,71,0.0,1.0,78,0.00,,,0.02,Wunderground v.1.15,2013-10-06 20:15:00,
2013-10-06 16:20:00,79.4,72.7,29.91,ENE,71,1.0,1.0,80,0.00,,,0.02,Wunderground v.1.15,2013-10-06 20:20:00,
2013-10-06 16:30:00,79.0,71.6,29.91,ENE,71,0.0,0.0,78,0.00,,,0.02,Wunderground v.1.15,2013-10-06 20:30:00,
2013-10-06 16:35:00,78.9,71.8,29.90,ENE,71,0.0,0.0,79,0.00,,,0.02,Wunderground v.1.15,2013-10-06 20:35:00,
2013-10-06 16:45:00,78.8,71.4,29.91,ENE,71,0.0,0.0,78,0.00,,,0.02,Wunderground v.1.15,2013-10-06 20:45:00,
2013-10-06 16:50:00,79.1,72.0,29.91,ENE,71,0.0,0.0,79,0.00,,,0.02,Wunderground v.1.15,2013-10-06 20:50:00,
2013-10-06 16:55:00,79.1,71.6,29.90,ENE,71,0.0,1.0,78,0.00,,,0.02,Wunderground v.1.15,2013-10-06 20:55:00,
2013-10-06 17:00:00,78.9,72.2,29.90,ENE,71,0.0,0.0,80,0.00,,,0.02,Wunderground v.1.15,2013-10-06 21:00:00,
2013-10-06 17:10:00,78.2,72.3,29.90,ENE,71,0.0,0.0,82,0.00,,,0.02,Wunderground v.1.15,2013-10-06 21:10:00,
2013-10-06 17:15:00,77.8,72.2,29.90,ENE,71,0.0,0.0,83,0.00,,,0.02,Wunderground v.1.15,2013-10-06 21:15:00,
2013-10-06 17:25:00,77.2,71.6,29.90,ENE,71,0.0,1.0,83,0.00,,,0.02,Wunderground v.1.15,2013-10-06 21:25:00,
2013-10-06 17:30:00,77.0,71.8,29.90,ENE,71,0.0,0.0,84,0.00,,,0.02,Wunderground v.1.15,2013-10-06 21:30:00,
2013-10-06 17:35:00,76.9,71.7,29.90,ENE,71,0.0,0.0,84,0.00,,,0.02,Wunderground v.1.15,2013-10-06 21:35:00,
2013-10-06 17:40:00,76.8,71.9,29.90,ENE,71,0.0,0.0,85,0.00,,,0.02,Wunderground v.1.15,2013-10-06 21:40:00,
2013-10-06 17:50:00,76.9,72.0,29.90,East,88,1.0,1.0,85,0.00,,,0.02,Wunderground v.1.15,2013-10-06 21:50:00,
2013-10-06 17:55:00,77.1,72.2,29.90,East,88,1.0,1.0,85,0.00,,,0.02,Wunderground v.1.15,2013-10-06 21:55:00,
2013-10-06 18:00:00,77.0,72.1,29.91,East,88,1.0,1.0,85,0.00,,,0.02,Wunderground v.1.15,2013-10-06 22:00:00,
2013-10-06 18:10:00,76.6,72.1,29.90,East,88,0.0,0.0,86,0.00,,,0.02,Wunderground v.1.15,2013-10-06 22:10:00,
2013-10-06 18:15:00,76.5,72.3,29.90,East,88,0.0,0.0,87,0.00,,,0.02,Wunderground v.1.15,2013-10-06 22:15:00,
2013-10-06 18:20:00,76.3,72.1,29.90,NNE,26,0.0,1.0,87,0.00,,,0.02,Wunderground v.1.15,2013-10-06 22:20:00,
2013-10-06 18:30:00,76.2,72.0,29.90,NE,43,0.0,0.0,87,0.00,,,0.02,Wunderground v.1.15,2013-10-06 22:30:00,
2013-10-06 18:35:00,75.9,71.8,29.91,NE,43,0.0,1.0,87,0.00,,,0.02,Wunderground v.1.15,2013-10-06 22:35:00,
2013-10-06 18:40:00,75.7,71.9,29.91,NE,43,0.0,1.0,88,0.00,,,0.02,Wunderground v.1.15,2013-10-06 22:40:00,
2013-10-06 18:50:00,75.1,71.6,29.91,NE,43,0.0,1.0,89,0.00,,,0.02,Wunderground v.1.15,2013-10-06 22:50:00,
2013-10-06 18:55:00,74.8,71.3,29.91,NE,43,0.0,1.0,89,0.00,,,0.02,Wunderground v.1.15,2013-10-06 22:55:00,
2013-10-06 19:05:00,74.4,71.3,29.91,NE,43,0.0,0.0,90,0.00,,,0.02,Wunderground v.1.15,2013-10-06 23:05:00,
2013-10-06 19:10:00,74.1,71.3,29.91,NE,43,0.0,0.0,91,0.00,,,0.02,Wunderground v.1.15,2013-10-06 23:10:00,
2013-10-06 19:15:00,74.0,71.2,29.91,NE,43,0.0,1.0,91,0.00,,,0.02,Wunderground v.1.15,2013-10-06 23:15:00,
2013-10-06 19:20:00,73.8,71.3,29.91,NE,43,0.0,0.0,92,0.00,,,0.02,Wunderground v.1.15,2013-10-06 23:20:00,
2013-10-06 19:30:00,73.5,71.0,29.91,NE,43,0.0,1.0,92,0.00,,,0.02,Wunderground v.1.15,2013-10-06 23:30:00,
2013-10-06 19:35:00,73.5,71.4,29.91,NE,43,0.0,1.0,93,0.00,,,0.02,Wunderground v.1.15,2013-10-06 23:35:00,
2013-10-06 19:45:00,73.3,71.2,29.91,NE,43,0.0,0.0,93,0.00,,,0.02,Wunderground v.1.15,2013-10-06 23:45:00,
2013-10-06 19:50:00,73.2,71.1,29.91,NE,43,0.0,0.0,93,0.00,,,0.02,Wunderground v.1.15,2013-10-06 23:50:00,
2013-10-06 19:55:00,73.2,71.1,29.91,NE,43,0.0,0.0,93,0.00,,,0.02,Wunderground v.1.15,2013-10-06 23:55:00,
2013-10-06 20:05:00,72.9,71.1,29.91,NE,43,0.0,0.0,94,0.00,,,0.02,Wunderground v.1.15,2013-10-07 00:05:00,
2013-10-06 20:10:00,72.8,71.0,29.91,NE,43,0.0,0.0,94,0.00,,,0.02,Wunderground v.1.15,2013-10-07 00:10:00,
2013-10-06 20:20:00,72.6,70.8,29.92,NE,43,0.0,0.0,94,0.00,,,0.02,Wunderground v.1.15,2013-10-07 00:20:00,
2013-10-06 20:25:00,72.5,71.0,29.92,NE,43,0.0,0.0,95,0.00,,,0.02,Wunderground v.1.15,2013-10-07 00:25:00,
2013-10-06 20:30:00,72.4,70.9,29.92,NE,43,0.0,0.0,95,0.00,,,0.02,Wunderground v.1.15,2013-10-07 00:30:00,
2013-10-06 20:40:00,72.2,70.7,29.92,NE,43,0.0,1.0,95,0.00,,,0.02,Wunderground v.1.15,2013-10-07 00:40:00,
2013-10-06 20:45:00,72.2,70.7,29.91,NE,43,1.0,1.0,95,0.00,,,0.02,Wunderground v.1.15,2013-10-07 00:45:00,
2013-10-06 20:55:00,72.1,70.6,29.91,NE,43,0.0,2.0,95,0.00,,,0.02,Wunderground v.1.15,2013-10-07 00:55:00,
2013-10-06 21:00:00,72.1,70.6,29.91,NE,43,1.0,1.0,95,0.00,,,0.02,Wunderground v.1.15,2013-10-07 01:00:00,
2013-10-06 21:10:00,72.1,70.6,29.91,NE,43,1.0,1.0,95,0.00,,,0.02,Wunderground v.1.15,2013-10-07 01:10:00,
2013-10-06 21:15:00,72.1,70.6,29.91,NE,47,1.0,1.0,95,0.00,,,0.02,Wunderground v.1.15,2013-10-07 01:15:00,
2013-10-06 21:20:00,72.1,70.6,29.92,NE,47,1.0,1.0,95,0.00,,,0.02,Wunderground v.1.15,2013-10-07 01:20:00,
2013-10-06 21:30:00,71.9,70.4,29.91,NE,47,1.0,1.0,95,0.00,,,0.02,Wunderground v.1.15,2013-10-07 01:30:00,
2013-10-06 21:35:00,71.9,70.4,29.92,NE,47,0.0,1.0,95,0.00,,,0.02,Wunderground v.1.15,2013-10-07 01:35:00,
2013-10-06 21:45:00,71.9,70.4,29.92,NE,51,1.0,1.0,95,0.00,,,0.02,Wunderground v.1.15,2013-10-07 01:45:00,
2013-10-06 21:50:00,71.9,70.4,29.92,NE,51,1.0,1.0,95,0.00,,,0.02,Wunderground v.1.15,2013-10-07 01:50:00,
2013-10-06 21:55:00,72.0,70.5,29.92,NE,51,1.0,1.0,95,0.00,,,0.02,Wunderground v.1.15,2013-10-07 01:55:00,
2013-10-06 22:05:00,72.1,70.6,29.92,NE,52,1.0,1.0,95,0.00,,,0.02,Wunderground v.1.15,2013-10-07 02:05:00,
2013-10-06 22:10:00,72.2,70.7,29.92,NE,52,1.0,1.0,95,0.00,,,0.02,Wunderground v.1.15,2013-10-07 02:10:00,
2013-10-06 22:20:00,72.3,70.8,29.92,NE,52,0.0,1.0,95,0.00,,,0.02,Wunderground v.1.15,2013-10-07 02:20:00,
2013-10-06 22:25:00,72.4,70.9,29.92,NE,52,0.0,1.0,95,0.00,,,0.02,Wunderground v.1.15,2013-10-07 02:25:00,
2013-10-06 22:30:00,72.3,70.8,29.92,NE,52,0.0,0.0,95,0.00,,,0.02,Wunderground v.1.15,2013-10-07 02:30:00,
2013-10-06 22:40:00,72.3,70.8,29.92,NE,52,0.0,0.0,95,0.00,,,0.02,Wunderground v.1.15,2013-10-07 02:40:00,
2013-10-06 22:45:00,72.2,71.0,29.91,NE,52,0.0,0.0,96,0.00,,,0.02,Wunderground v.1.15,2013-10-07 02:45:00,
2013-10-06 22:50:00,72.3,71.1,29.91,NE,52,0.0,1.0,96,0.00,,,0.02,Wunderground v.1.15,2013-10-07 02:50:00,
2013-10-06 23:00:00,72.2,71.0,29.92,NE,52,0.0,0.0,96,0.00,,,0.02,Wunderground v.1.15,2013-10-07 03:00:00,
2013-10-06 23:05:00,72.3,71.1,29.92,NE,52,0.0,0.0,96,0.00,,,0.02,Wunderground v.1.15,2013-10-07 03:05:00,
2013-10-06 23:10:00,72.2,70.7,29.92,NE,52,0.0,0.0,95,0.00,,,0.02,Wunderground v.1.15,2013-10-07 03:10:00,
2013-10-06 23:15:00,72.2,71.0,29.91,NE,52,0.0,0.0,96,0.00,,,0.02,Wunderground v.1.15,2013-10-07 03:15:00,
2013-10-06 23:25:00,72.3,70.8,29.91,NE,52,0.0,0.0,95,0.00,,,0.02,Wunderground v.1.15,2013-10-07 03:25:00,
2013-10-06 23:30:00,72.3,70.8,29.91,NNE,32,0.0,0.0,95,0.00,,,0.02,Wunderground v.1.15,2013-10-07 03:30:00,
2013-10-06 23:35:00,72.2,70.7,29.91,NNE,32,0.0,0.0,95,0.00,,,0.02,Wunderground v.1.15,2013-10-07 03:35:00,
2013-10-06 23:40:00,72.2,70.7,29.91,NNE,32,0.0,0.0,95,0.00,,,0.02,Wunderground v.1.15,2013-10-07 03:40:00,
2013-10-06 23:50:00,72.1,70.9,29.91,NNE,32,0.0,0.0,96,0.00,,,0.02,Wunderground v.1.15,2013-10-07 03:50:00,
2013-10-06 23:55:00,72.1,70.9,29.91,NNE,32,0.0,0.0,96,0.00,,,0.02,Wunderground v.1.15,2013-10-07 03:55:00,